User: anonymous
Location: Nebula Knoll Observatory
(43.6666°N, 71.0000°W)
Time: 09:51:18
(UTC-04:00)
Language:

Cosmos 1782 - Orbit

View from above orbital plane
View from above orbital plane
View from above satellite
View from above satellite

Ground track
Ground track

The orbit data is extracted from the following two-line orbital elements,

1 16986U 86074A   14271.75431237  .00002439  00000-0  17781-3 0  8659
2 16986 082.5109 005.1024 0013216 125.8551 234.3904 15.03252851521532
Epoch (UTC): 28 September 2014 18:06:12
Eccentricity: 0.0013216
inclination: 82.5109°
perigee height: 548 km
apogee height: 566 km
right ascension of ascending node: 5.1024°
argument of perigee: 125.8551°
revolutions per day: 15.03252851
mean anomaly at epoch: 234.3904°
orbit number at epoch: 52153

The dashed part of the orbit path shows where the satellite is in the earth's shadow,  

DLR